H1 CPF 2 NER 2025 12 17 9 351 01 glonass129 H2 1106402 9129 37868 2025 12 17 0 0 0 2025 12 20 23 45 0 900 1 1 0 0 0 1 H9 10 0 61026 0.00000 0 -6861673.176 -9673765.519 -22532768.385 10 0 61026 900.00000 0 -4065281.215 -10073229.770 -23034100.240 10 0 61026 1800.00000 0 -1273503.558 -10686485.737 -23085958.554 10 0 61026 2700.00000 0 1443957.334 -11499107.588 -22687557.396 10 0 61026 3600.00000 0 4021265.853 -12484755.496 -21846919.755 10 0 61026 4500.00000 0 6398956.884 -13606256.285 -20580700.013 10 0 61026 5400.00000 0 8526163.151 -14817158.693 -18913836.100 10 0 61026 6300.00000 0 10362474.567 -16063695.908 -16879039.754 10 0 61026 7200.00000 0 11879353.993 -17287071.027 -14516136.563 10 0 61026 8100.00000 0 13061052.963 -18425967.862 -11871270.224 10 0 61026 9000.00000 0 13904992.371 -19419180.436 -8995987.925 10 0 61026 9900.00000 0 14421595.650 -20208250.127 -5946225.901 10 0 61026 10800.00000 0 14633585.011 -20739999.702 -2781215.776 10 0 61026 11700.00000 0 14574773.570 -20968858.397 437666.517 10 0 61026 12600.00000 0 14288406.831 -20858881.434 3648086.646 10 0 61026 13500.00000 0 13825125.404 -20385380.709 6787949.914 10 0 61026 14400.00000 0 13240635.884 -19536099.796 9796588.903 10 0 61026 15300.00000 0 12593188.205 -18311885.468 12615918.763 10 0 61026 16200.00000 0 11940965.204 -16726828.797 15191539.317 10 0 61026 17100.00000 0 11339492.953 -14807870.520 17473764.416 10 0 61026 18000.00000 0 10839179.209 -12593887.176 19418560.600 10 0 61026 18900.00000 0 10483081.480 -10134295.325 20988378.958 10 0 61026 19800.00000 0 10304996.692 -7487230.402 22152865.975 10 0 61026 20700.00000 0 10327951.138 -4717373.753 22889441.163 10 0 61026 21600.00000 0 10563153.210 -1893515.267 23183731.440 10 0 61026 22500.00000 0 11009452.764 914050.280 23029854.371 10 0 61026 23400.00000 0 11653330.523 3636188.159 22430544.656 10 0 61026 24300.00000 0 12469419.574 6207542.246 21397120.563 10 0 61026 25200.00000 0 13421539.365 8569000.843 19949289.469 10 0 61026 26100.00000 0 14464201.519 10669908.968 18114794.256 10 0 61026 27000.00000 0 15544527.146 12469935.959 15928904.979 10 0 61026 27900.00000 0 16604497.750 13940520.617 13433763.082 10 0 61026 28800.00000 0 17583447.236 15065832.831 10677588.425 10 0 61026 29700.00000 0 18420691.478 15843210.200 7713762.266 10 0 61026 30600.00000 0 19058185.029 16283049.748 4599802.350 10 0 61026 31500.00000 0 19443092.275 16408157.646 1396249.027 10 0 61026 32400.00000 0 19530162.871 16252582.945 -1834516.185 10 0 61026 33300.00000 0 19283808.694 15859983.618 -5029496.091 10 0 61026 34200.00000 0 18679791.562 15281593.710 -8126322.226 10 0 61026 35100.00000 0 17706447.217 14573878.130 -11064492.150 10 0 61026 36000.00000 0 16365390.725 13795975.581 -13786573.318 10 0 61026 36900.00000 0 14671670.833 13007039.805 -16239347.701 10 0 61026 37800.00000 0 12653364.663 12263593.995 -18374872.531 10 0 61026 38700.00000 0 10350628.523 11617012.779 -20151434.492 10 0 61026 39600.00000 0 7814244.249 11111240.620 -21534377.102 10 0 61026 40500.00000 0 5103722.364 10780845.009 -22496784.113 10 0 61026 41400.00000 0 2285042.393 10649487.978 -23020005.112 10 0 61026 42300.00000 0 -571873.886 10728881.066 -23094013.187 10 0 61026 43200.00000 0 -3395849.348 11018267.610 -22717588.273 10 0 61026 44100.00000 0 -6117185.328 11504453.264 -21898323.707 10 0 61026 45000.00000 0 -8670327.543 12162381.927 -20652457.209 10 0 61026 45900.00000 0 -10996352.903 12956230.856 -19004531.198 10 0 61026 46800.00000 0 -13045174.198 13840976.661 -16986890.760 10 0 61026 47700.00000 0 -14777372.112 14764364.079 -14639030.720 10 0 61026 48600.00000 0 -16165580.299 15669192.658 -12006806.176 10 0 61026 49500.00000 0 -17195368.489 16495823.533 -9141523.270 10 0 61026 50400.00000 0 -17865589.872 17184799.695 -6098929.125 10 0 61026 51300.00000 0 -18188181.684 17679469.041 -2938121.512 10 0 61026 52200.00000 0 -18187430.636 17928499.935 279599.989 10 0 61026 53100.00000 0 -17898737.058 17888184.186 3491918.820 10 0 61026 54000.00000 0 -17366932.076 17524431.775 6636699.512 10 0 61026 54900.00000 0 -16644220.139 16814374.820 9653176.409 10 0 61026 55800.00000 0 -15787834.284 15747514.990 12483111.139 10 0 61026 56700.00000 0 -14857502.514 14326367.367 15071897.813 10 0 61026 57600.00000 0 -13912830.901 12566574.562 17369596.384 10 0 61026 58500.00000 0 -13010711.930 10496486.589 19331876.150 10 0 61026 59400.00000 0 -12202864.894 8156223.425 20920853.148 10 0 61026 60300.00000 0 -11533609.535 5596258.033 22105807.179 10 0 61026 61200.00000 0 -11037964.352 2875576.707 22863766.136 10 0 61026 62100.00000 0 -10740147.820 59490.538 23179947.526 10 0 61026 63000.00000 0 -10652544.484 -2782814.258 23048049.189 10 0 61026 63900.00000 0 -10775179.225 -5580888.662 22470383.472 10 0 61026 64800.00000 0 -11095722.494 -8265690.599 21457851.491 10 0 61026 65700.00000 0 -11590027.870 -10772203.999 20029756.489 10 0 61026 66600.00000 0 -12223181.547 -13041900.444 18213457.920 10 0 61026 67500.00000 0 -12951022.170 -15024942.357 16043870.566 10 0 61026 68400.00000 0 -13722069.713 -16682036.374 13562815.799 10 0 61026 69300.00000 0 -14479784.444 -17985859.157 10818235.104 10 0 61026 70200.00000 0 -15165062.485 -18921994.920 7863278.876 10 0 61026 71100.00000 0 -15718863.536 -19489343.808 4755286.467 10 0 61026 72000.00000 0 -16084859.618 -19699982.140 1554676.267 10 0 61026 72900.00000 0 -16211991.798 -19578478.693 -1676232.869 10 0 61026 73800.00000 0 -16056824.698 -19160694.483 -4874445.481 10 0 61026 74700.00000 0 -15585596.446 -18492115.927 -7977533.544 10 0 61026 75600.00000 0 -14775874.195 -17625791.789 -10924874.710 10 0 61026 76500.00000 0 -13617741.943 -16619961.879 -13658858.434 10 0 61026 77400.00000 0 -12114467.393 -15535479.240 -16126034.089 10 0 61026 78300.00000 0 -10282617.177 -14433136.837 -18278176.394 10 0 61026 79200.00000 0 -8151613.692 -13371014.004 -20073245.350 10 0 61026 80100.00000 0 -5762751.129 -12401957.095 -21476220.300 10 0 61026 81000.00000 0 -3167711.763 -11571302.684 -22459790.771 10 0 61026 81900.00000 0 -426645.088 -10914940.886 -23004890.143 10 0 61026 82800.00000 0 2394108.813 -10457801.221 -23101061.772 10 0 61026 83700.00000 0 5224555.297 -10212824.806 -22746651.049 10 0 61026 84600.00000 0 7993733.510 -10180465.332 -21948820.679 10 0 61026 85500.00000 0 10632443.858 -10348738.310 -20723390.245 10 0 61027 0.00000 0 13075900.185 -10693814.362 -19094504.923 10 0 61027 900.00000 0 15266197.455 -11181129.341 -17094140.558 10 0 61027 1800.00000 0 17154489.638 -11766961.485 -14761458.694 10 0 61027 2700.00000 0 18702792.886 -12400407.341 -12142022.864 10 0 61027 3600.00000 0 19885337.663 -13025670.699 -9286894.897 10 0 61027 4500.00000 0 20689417.449 -13584566.615 -6251629.302 10 0 61027 5400.00000 0 21115701.436 -14019134.005 -3095186.351 10 0 61027 6300.00000 0 21178001.358 -14274246.371 121214.454 10 0 61027 7200.00000 0 20902505.254 -14300110.950 3335277.985 10 0 61027 8100.00000 0 20326512.930 -14054551.843 6484831.434 10 0 61027 9000.00000 0 19496728.266 -13504982.306 9509014.058 10 0 61027 9900.00000 0 18467181.212 -12629984.568 12349436.685 10 0 61027 10800.00000 0 17296866.921 -11420432.083 14951289.964 10 0 61027 11700.00000 0 16047200.762 -9880108.159 17264381.744 10 0 61027 12600.00000 0 14779394.557 -8025795.405 19244085.368 10 0 61027 13500.00000 0 13551862.314 -5886832.031 20852182.622 10 0 61027 14400.00000 0 12417762.034 -3504152.541 22057586.980 10 0 61027 15300.00000 0 11422774.263 -928850.883 22836934.665 10 0 61027 16200.00000 0 10603208.457 1779676.635 23175033.343 10 0 61027 17100.00000 0 9984514.920 4555934.557 23065160.345 10 0 61027 18000.00000 0 9580263.827 7330789.362 22509204.587 10 0 61027 18900.00000 0 9391634.064 10034089.606 21517648.663 10 0 61027 19800.00000 0 9407434.099 12597339.330 20109390.073 10 0 61027 20700.00000 0 9604655.510 14956316.134 18311403.022 10 0 61027 21600.00000 0 9949537.961 17053526.737 16158245.003 10 0 61027 22500.00000 0 10399103.107 18840398.618 13691415.141 10 0 61027 23400.00000 0 10903095.091 20279116.185 10958574.208 10 0 61027 24300.00000 0 11406247.625 21344023.848 8012639.255 10 0 61027 25200.00000 0 11850783.171 22022535.713 4910768.623 10 0 61027 26100.00000 0 12179038.885 22315511.752 1713256.044 10 0 61027 27000.00000 0 12336107.628 22237082.673 -1517645.047 10 0 61027 27900.00000 0 12272380.647 21813929.040 -4718943.645 10 0 61027 28800.00000 0 11945881.880 21084043.765 -7828154.785 10 0 61027 29700.00000 0 11324292.067 20095029.561 -10784538.651 10 0 61027 30600.00000 0 10386573.742 18902003.449 -13530308.892 10 0 61027 31500.00000 0 9124125.124 17565197.748 -16011784.205 10 0 61027 32400.00000 0 7541411.273 16147360.476 -18180458.433 10 0 61027 33300.00000 0 5656043.535 14711066.926 -19993966.248 10 0 61027 34200.00000 0 3498302.319 13316058.059 -21416923.908 10 0 61027 35100.00000 0 1110122.479 12016720.005 -22421627.558 10 0 61027 36000.00000 0 -1456416.174 10859812.489 -22988594.948 10 0 61027 36900.00000 0 -4141029.388 9882542.872 -23106939.998 10 0 61027 37800.00000 0 -6877517.771 9111067.049 -22774573.522 10 0 61027 38700.00000 0 -9596308.056 8559479.618 -21998227.179 10 0 61027 39600.00000 0 -12227139.006 8229334.385 -20793301.587 10 0 61027 40500.00000 0 -14701779.100 8109713.208 -19183543.099 10 0 61027 41400.00000 0 -16956662.255 8177837.703 -17200557.257 10 0 61027 42300.00000 0 -18935331.929 8400195.175 -14883170.091 10 0 61027 43200.00000 0 -20590592.578 8734128.513 -12276651.330 10 0 61027 44100.00000 0 -21886280.354 9129820.441 -9431816.096 10 0 61027 45000.00000 0 -22798581.269 9532586.314 -6404023.807 10 0 61027 45900.00000 0 -23316844.473 9885377.196 -3252094.722 10 0 61027 46800.00000 0 -23443859.530 10131386.787 -37165.777 10 0 61027 47700.00000 0 -23195589.030 10216652.043 3178491.799 10 0 61027 48600.00000 0 -22600370.418 10092538.277 6332670.320 10 0 61027 49500.00000 0 -21697622.757 9718004.984 9364416.379 10 0 61027 50400.00000 0 -20536114.089 9061558.222 12215192.376 10 0 61027 51300.00000 0 -19171862.799 8102808.756 14829987.824 10 0 61027 52200.00000 0 -17665760.684 6833571.629 17158360.648 10 0 61027 53100.00000 0 -16081016.349 5258461.718 19155390.246 10 0 61027 54000.00000 0 -14480524.426 3394960.520 20782525.967 10 0 61027 54900.00000 0 -12924268.431 1272950.626 22008316.470 10 0 61027 55800.00000 0 -11466863.570 -1066264.101 22809007.505 10 0 61027 56700.00000 0 -10155339.879 -3571414.041 23168997.756 10 0 61027 57600.00000 0 -9027256.276 -6183137.406 23081144.560 10 0 61027 58500.00000 0 -8109222.985 -8836197.169 22546913.545 10 0 61027 59400.00000 0 -7415893.351 -11461952.671 21576368.592 10 0 61027 60300.00000 0 -6949467.280 -13990986.440 20188000.896 10 0 61027 61200.00000 0 -6699727.924 -16355779.809 18408398.506 10 0 61027 62100.00000 0 -6644611.552 -18493328.110 16271760.381 10 0 61027 63000.00000 0 -6751288.489 -20347587.782 13819261.795 10 0 61027 63900.00000 0 -6977711.696 -21871653.545 11098280.917 10 0 61027 64800.00000 0 -7274569.570 -23029574.038 8161499.279 10 0 61027 65700.00000 0 -7587561.898 -23797728.499 5065891.813 10 0 61027 66600.00000 0 -7859903.493 -24165704.753 1871624.978 10 0 61027 67500.00000 0 -8034949.325 -24136639.403 -1359115.975 10 0 61027 68400.00000 0 -8058828.898 -23727003.702 -4563347.418 10 0 61027 69300.00000 0 -7882976.257 -22965842.322 -7678530.484 10 0 61027 70200.00000 0 -7466445.729 -21893495.901 -10643811.016 10 0 61027 71100.00000 0 -6777912.228 -20559860.775 -13401230.014 10 0 61027 72000.00000 0 -5797268.140 -19022259.716 -15896878.606 10 0 61027 72900.00000 0 -4516746.181 -17343014.582 -18081972.711 10 0 61027 73800.00000 0 -2941518.153 -15586824.905 -19913824.363 10 0 61027 74700.00000 0 -1089742.285 -13818064.904 -21356689.044 10 0 61027 75600.00000 0 1007944.054 -12098114.757 -22382471.364 10 0 61027 76500.00000 0 3309465.488 -10482840.186 -22971274.751 10 0 61027 77400.00000 0 5762839.665 -9020327.544 -23111784.453 10 0 61027 78300.00000 0 8308133.305 -7748970.091 -22801476.911 10 0 61027 79200.00000 0 10879760.272 -6695985.460 -22046652.443 10 0 61027 80100.00000 0 13409024.406 -5876425.381 -20862291.924 10 0 61027 81000.00000 0 15826799.766 -5292717.235 -19271741.824 10 0 61027 81900.00000 0 18066235.677 -4934754.071 -17306235.439 10 0 61027 82800.00000 0 20065373.353 -4780526.274 -15004261.330 10 0 61027 83700.00000 0 21769565.269 -4797265.087 -12410792.925 10 0 61027 84600.00000 0 23133597.289 -4943046.808 -9576395.723 10 0 61027 85500.00000 0 24123426.531 -5168787.297 -6556230.771 10 0 61028 0.00000 0 24717464.497 -5420540.543 -3408975.030 10 0 61028 900.00000 0 24907354.624 -5642002.975 -195678.549 10 0 61028 1800.00000 0 24698213.625 -5777116.779 3021414.855 10 0 61028 2700.00000 0 24108330.292 -5772662.820 6180066.309 10 0 61028 3600.00000 0 23168335.723 -5580734.126 9219233.208 10 0 61028 4500.00000 0 21919881.790 -5160986.858 12080232.663 10 0 61028 5400.00000 0 20413884.155 -4482575.302 14707855.769 10 0 61028 6300.00000 0 18708403.408 -3525690.714 17051412.780 10 0 61028 7200.00000 0 16866252.419 -2282640.443 19065690.939 10 0 61028 8100.00000 0 14952428.466 -758422.532 20711808.462 10 0 61028 9000.00000 0 13031475.404 1029228.437 21957950.069 10 0 61028 9900.00000 0 11164883.631 3050327.184 22779971.498 10 0 61028 10800.00000 0 9408633.736 5263636.810 23161862.506 10 0 61028 11700.00000 0 7810983.995 7618142.020 23096060.087 10 0 61028 12600.00000 0 6410592.054 10054938.233 22583605.863 10 0 61028 13500.00000 0 5235047.846 12509461.331 21634143.897 10 0 61028 14400.00000 0 4299878.411 14913968.684 20265757.640 10 0 61028 15300.00000 0 3608066.393 17200171.250 18504647.218 10 0 61028 16200.00000 0 3150103.252 19301909.625 16384650.998 10 0 61028 17100.00000 0 2904576.357 21157764.157 13946618.118 10 0 61028 18000.00000 0 2839267.040 22713490.852 11237641.627 10 0 61028 18900.00000 0 2912715.120 23924180.957 8310164.842 10 0 61028 19800.00000 0 3076185.399 24756052.603 5220976.432 10 0 61028 20700.00000 0 3275954.008 25187797.427 2030112.625 10 0 61028 21600.00000 0 3455818.059 25211423.250 -1200312.535 10 0 61028 22500.00000 0 3559721.679 24832554.892 -4407325.790 10 0 61028 23400.00000 0 3534385.597 24070178.130 -7528337.269 10 0 61028 24300.00000 0 3331826.500 22955835.808 -10502381.179 10 0 61028 25200.00000 0 2911656.559 21532308.854 -13271328.332 10 0 61028 26100.00000 0 2243062.520 19851837.523 -15781044.444 10 0 61028 27000.00000 0 1306377.463 17973958.343 -17982469.352 10 0 61028 27900.00000 0 94175.907 15963049.073 -19832593.977 10 0 61028 28800.00000 0 -1388156.296 13885686.734 -21295314.242 10 0 61028 29700.00000 0 -3122402.940 11807931.701 -22342144.133 10 0 61028 30600.00000 0 -5078050.991 9792653.811 -22952773.372 10 0 61028 31500.00000 0 -7213354.346 7897014.162 -23115458.809 10 0 61028 32400.00000 0 -9476882.647 6170209.075 -22827242.430 10 0 61028 33300.00000 0 -11809489.297 4651570.796 -22093992.710 10 0 61028 34200.00000 0 -14146614.965 3369103.721 -20930269.842 10 0 61028 35100.00000 0 -16420828.992 2338515.768 -19359019.041 10 0 61028 36000.00000 0 -18564501.382 1562783.032 -17411099.569 10 0 61028 36900.00000 0 -20512492.972 1032262.960 -15124660.388 10 0 61028 37800.00000 0 -22204751.222 725347.931 -12544376.226 10 0 61028 38700.00000 0 -23588703.584 609628.337 -9720560.392 10 0 61028 39600.00000 0 -24621349.446 643513.027 -6708172.894 10 0 61028 40500.00000 0 -25270964.812 778236.131 -3565744.130 10 0 61028 41400.00000 0 -25518350.465 960163.553 -354235.701 10 0 61028 42300.00000 0 -25357573.757 1133300.522 2864139.216 10 0 61028 43200.00000 0 -24796175.383 1241893.865 6027113.218 10 0 61028 44100.00000 0 -23854834.618 1233019.428 9073557.085 10 0 61028 45000.00000 0 -22566508.993 1059046.331 11944645.165 10 0 61028 45900.00000 0 -20975085.412 679875.455 14584972.528 10 0 61028 46800.00000 0 -19133599.514 64859.275 16943603.976 10 0 61028 47700.00000 0 -17102097.453 -805676.418 18975036.572 10 0 61028 48600.00000 0 -14945228.074 -1939371.874 20640059.073 10 0 61028 49500.00000 0 -12729664.142 -3331278.024 21906493.589 10 0 61028 50400.00000 0 -10521457.721 -4963830.055 22749806.778 10 0 61028 51300.00000 0 -8383437.271 -6807352.332 23153580.010 10 0 61028 52200.00000 0 -6372752.196 -8821075.691 23109830.111 10 0 61028 53100.00000 0 -4538664.801 -10954627.386 22619174.508 10 0 61028 54000.00000 0 -2920679.786 -13149934.807 21690836.945 10 0 61028 54900.00000 0 -1547088.029 -15343467.041 20342492.321 10 0 61028 55800.00000 0 -433985.087 -17468724.053 18599951.760 10 0 61028 56700.00000 0 415194.300 -19458872.507 16496691.690 10 0 61028 57600.00000 0 1009605.218 -21249420.272 14073233.492 10 0 61028 58500.00000 0 1370386.675 -22780819.006 11376383.231 10 0 61028 59400.00000 0 1529544.643 -24000886.051 8458343.914 10 0 61028 60300.00000 0 1528369.587 -24866943.304 5375715.653 10 0 61028 61200.00000 0 1415454.118 -25347581.568 2188401.990 10 0 61028 62100.00000 0 1244394.030 -25423973.889 -1041556.824 10 0 61028 63000.00000 0 1071270.274 -25090679.951 -4251200.603 10 0 61028 63900.00000 0 952019.644 -24355904.951 -7377891.242 10 0 61028 64800.00000 0 939807.495 -23241199.714 -10360554.153 10 0 61028 65700.00000 0 1082516.389 -21780612.915 -13140892.805 10 0 61028 66600.00000 0 1420460.078 -20019330.158 -15664550.309 10 0 61028 67500.00000 0 1984422.683 -18011857.091 -17882193.106 10 0 61028 68400.00000 0 2794108.984 -15819823.659 -19750493.464 10 0 61028 69300.00000 0 3857073.825 -13509503.156 -21232989.903 10 0 61028 70200.00000 0 5168177.695 -11149151.944 -22300807.549 10 0 61028 71100.00000 0 6709592.616 -8806283.247 -22933223.727 10 0 61028 72000.00000 0 8451358.468 -6544990.919 -23118067.735 10 0 61028 72900.00000 0 10352466.056 -4423436.364 -22851947.471 10 0 61028 73800.00000 0 12362420.619 -2491604.198 -22140299.499 10 0 61028 74700.00000 0 14423218.929 -789420.170 -20997262.844 10 0 61028 75600.00000 0 16471655.741 654691.238 -19445380.574 10 0 61028 76500.00000 0 18441861.670 1824751.310 -17515136.643 10 0 61028 77400.00000 0 20267965.175 2717636.954 -15244338.743 10 0 61028 78300.00000 0 21886766.563 3342942.091 -12677360.824 10 0 61028 79200.00000 0 23240312.062 3722299.967 -9864261.526 10 0 61028 80100.00000 0 24278260.666 3888198.350 -6859796.965 10 0 61028 81000.00000 0 24959945.813 3882340.687 -3722348.087 10 0 61028 81900.00000 0 25256047.156 3753624.861 -512784.075 10 0 61028 82800.00000 0 25149804.390 3555826.660 2706715.784 10 0 61028 83700.00000 0 24637724.383 3345086.745 5873859.043 10 0 61028 84600.00000 0 23729754.200 3177307.403 8927433.249 10 0 61028 85500.00000 0 22448914.470 3105568.407 11808473.119 10 0 61029 0.00000 0 20830409.818 3177669.830 14461380.285 10 0 61029 900.00000 0 18920253.371 3433904.021 16834977.070 10 0 61029 1800.00000 0 16773464.608 3905148.879 18883472.239 10 0 61029 2700.00000 0 14451912.042 4611361.435 20567326.821 10 0 61029 3600.00000 0 12021891.140 5560534.063 21854001.674 10 0 61029 4500.00000 0 9551535.081 6748156.922 22718575.358 10 0 61029 5400.00000 0 7108163.623 8157209.782 23144221.451 10 0 61029 6300.00000 0 4755677.529 9758685.031 23122536.795 10 0 61029 7200.00000 0 2552104.256 11512622.285 22653714.391 10 0 61029 8100.00000 0 547394.718 13369614.217 21746556.992 10 0 61029 9000.00000 0 -1218438.858 15272724.010 20418329.842 10 0 61029 9900.00000 0 -2716767.340 17159737.595 18694453.542 10 0 61029 10800.00000 0 -3931311.267 18965659.640 16608040.683 10 0 61029 11700.00000 0 -4858588.682 20625351.364 14199282.666 10 0 61029 12600.00000 0 -5507824.355 22076201.405 11514696.082 10 0 61029 13500.00000 0 -5900322.746 23260718.425 8606240.917 10 0 61029 14400.00000 0 -6068329.590 24128936.305 5530325.853 10 0 61029 15300.00000 0 -6053428.754 24640529.428 2346718.748 10 0 61029 16200.00000 0 -5904541.243 24766546.932 -882617.016 10 0 61029 17100.00000 0 -5675610.791 24490690.187 -4094737.395 10 0 61029 18000.00000 0 -5423074.688 23810076.724 -7226959.080 10 0 61029 18900.00000 0 -5203228.414 22735455.689 -10218101.570 10 0 61029 19800.00000 0 -5069597.920 21290863.334 -13009703.669 10 0 61029 20700.00000 0 -5070433.599 19512731.462 -15547188.297 10 0 61029 21600.00000 0 -5246434.993 17448485.505 -17780950.600 10 0 61029 22500.00000 0 -5628805.465 15154691.205 -19667345.981 10 0 61029 23400.00000 0 -6237721.684 12694828.587 -21169557.023 10 0 61029 24300.00000 0 -7081284.655 10136787.948 -22258321.128 10 0 61029 25200.00000 0 -8154997.910 7550194.472 -22912504.038 10 0 61029 26100.00000 0 -9441795.453 5003675.133 -23119507.960 10 0 61029 27000.00000 0 -10912618.169 2562183.557 -22875506.793 10 0 61029 27900.00000 0 -12527513.664 284495.431 -22185504.859 10 0 61029 28800.00000 0 -14237212.109 -1779020.856 -21063219.248 10 0 61029 29700.00000 0 -15985110.392 -3588265.994 -19530789.677 10 0 61029 30600.00000 0 -17709579.776 -5114827.905 -17618323.162 10 0 61029 31500.00000 0 -19346498.871 -6342899.401 -15363284.117 10 0 61029 32400.00000 0 -20831904.630 -7269660.079 -12809743.415 10 0 61029 33300.00000 0 -22104649.672 -7905109.977 -10007502.492 10 0 61029 34200.00000 0 -23108954.481 -8271365.575 -7011110.892 10 0 61029 35100.00000 0 -23796748.081 -8401451.242 -3878797.332 10 0 61029 36000.00000 0 -24129700.169 -8337640.015 -671335.752 10 0 61029 36900.00000 0 -24080861.047 -8129416.003 2549131.303 10 0 61029 37800.00000 0 -23635842.436 -7831145.911 5720289.207 10 0 61029 38700.00000 0 -22793491.615 -7499558.661 8780845.108 10 0 61029 39600.00000 0 -21566032.347 -7191139.298 11671696.859 10 0 61029 40500.00000 0 -19978668.010 -6959546.262 14337055.774 10 0 61029 41400.00000 0 -18068664.232 -6853159.511 16725503.188 10 0 61029 42300.00000 0 -15883949.307 -6912861.134 18790962.213 10 0 61029 43200.00000 0 -13481290.128 -7170140.204 20493568.010 10 0 61029 44100.00000 0 -10924117.991 -7645600.155 21800421.624 10 0 61029 45000.00000 0 -8280092.659 -8347930.519 22686214.522 10 0 61029 45900.00000 0 -5618503.282 -9273386.037 23133713.070 10 0 61029 46800.00000 0 -3007611.173 -10405795.725 23134094.288 10 0 61029 47700.00000 0 -512042.002 -11717103.112 22687126.529 10 0 61029 48600.00000 0 1809666.883 -13168417.365 21801191.002 10 0 61029 49500.00000 0 3907264.199 -14711534.229 20493142.440 10 0 61029 50400.00000 0 5740637.452 -16290866.271 18788009.783 10 0 61029 51300.00000 0 7281244.135 -17845704.729 16718540.382 10 0 61029 52200.00000 0 8513061.535 -19312720.943 14324593.985 10 0 61029 53100.00000 0 9433014.600 -20628604.498 11652395.759 10 0 61029 54000.00000 0 10050862.690 -21732728.466 8753660.459 10 0 61029 54900.00000 0 10388548.452 -22569729.859 5684602.877 10 0 61029 55800.00000 0 10479034.765 -23091895.758 2504852.521 10 0 61029 56700.00000 0 10364677.678 -23261252.777 -723706.891 10 0 61029 57600.00000 0 10095203.529 -23051269.178 -3938150.359 10 0 61029 58500.00000 0 9725375.958 -22448094.906 -7075752.278 10 0 61029 59400.00000 0 9312452.558 -21451284.099 -10075229.126 10 0 61029 60300.00000 0 8913540.609 -20073966.840 -12877957.860 10 0 61029 61200.00000 0 8582966.228 -18342460.616 -15429143.898 10 0 61029 62100.00000 0 8369771.038 -16295336.330 -17678913.597 10 0 61029 63000.00000 0 8315445.137 -13981977.476 -19583307.754 10 0 61029 63900.00000 0 8451994.838 -11460693.205 -21105154.944 10 0 61029 64800.00000 0 8800429.006 -8796465.285 -22214806.397 10 0 61029 65700.00000 0 9369729.436 -6058424.705 -22890717.399 10 0 61029 66600.00000 0 10156349.432 -3317165.045 -23119863.747 10 0 61029 67500.00000 0 11144261.755 -642006.384 -22897985.590 10 0 61029 68400.00000 0 12305553.189 1901674.954 -22229654.844 10 0 61029 69300.00000 0 13601539.463 4254938.870 -21128166.126 10 0 61029 70200.00000 0 14984351.997 6367492.479 -19615254.911 10 0 61029 71100.00000 0 16398927.991 8199528.525 -17720650.052 10 0 61029 72000.00000 0 17785318.503 9723116.401 -15481471.136 10 0 61029 72900.00000 0 19081216.072 10923090.379 -12941484.062 10 0 61029 73800.00000 0 20224594.694 11797401.163 -10150230.844 10 0 61029 74700.00000 0 21156350.732 12356919.593 -7162051.904 10 0 61029 75600.00000 0 21822833.936 12624704.336 -4035020.897 10 0 61029 76500.00000 0 22178162.982 12634767.695 -829813.464 10 0 61029 77400.00000 0 22186229.368 12430394.217 2391467.755 10 0 61029 78300.00000 0 21822307.173 12062085.100 5566489.153 10 0 61029 79200.00000 0 21074202.807 11585216.199 8633880.616 10 0 61029 80100.00000 0 19942898.101 11057508.729 11534406.113 10 0 61029 81000.00000 0 18442661.256 10536418.807 14212089.182 10 0 61029 81900.00000 0 16600621.653 10076554.623 16615273.147 10 0 61029 82800.00000 0 14455826.597 9727228.399 18697597.461 10 0 61029 83700.00000 0 12057818.733 9530244.304 20418873.323 10 0 61029 84600.00000 0 9464792.080 9518013.556 21745843.574 10 0 61029 85500.00000 0 6741401.404 9712074.440 22652813.888 99